Regional Weather Roundup
Issued by NWS Spokane, WA

Home | Current Version | Previous Version | Text Only | Print | Product List | Glossary On
Versions: 1 2 3 4 5 6 7 8 9 10 11 12 13 14 15 16 17 18 19 20 21 22 23 24 25 26 27 28 29 30 31 32 33 34 35 36 37 38 39 40 41 42 43 44 45 46 47 48 49 50
000
NZUS01 KOTX 270510
RWROTX
EASTERN WASHINGTON/NORTHERN IDAHO ROUNDUP
NATIONAL WEATHER SERVICE, SPOKANE WA
1000 PM PDT SUN APR 26 2015

Note: "fair" indicated few or no clouds below 12,000 feet with no
significant weather and/or obstructions to visibility.

...NORTHEAST WASHINGTON AND NORTHERN IDAHO PANHANDLE...

CITY           SKY/WX    TMP DP  RH WIND       PRES   REMARKS
SPOKANE INTL   PTCLDY    48  26  42 SW7       30.24R
SPOKANE DOWNTO PTCLDY    43  33  68 NE5       30.25R
COEUR D ALENE  CLEAR     45  19  36 CALM      30.26R
DEER PARK      CLEAR     39  32  76 CALM      30.24R
SANDPOINT      CLEAR     41  32  70 CALM      30.24R
BONNERS FERRY  FAIR      46  27  46 CALM      30.22R

...SOUTHEAST WASHINGTON AND SOUTHERN IDAHO PANHANDLE...

CITY           SKY/WX    TMP DP  RH WIND       PRES   REMARKS
WALLA WALLA    CLEAR     52  31  44 E12       30.24S
PULLMAN/MOSCOW PTCLDY    39  24  55 CALM      30.28R
LEWISTON       CLEAR     48  27  44 S7        30.26R
LOWELL           N/A     42  37  82 CALM      30.32R

...COLUMBIA BASIN...

CITY           SKY/WX    TMP DP  RH WIND       PRES   REMARKS
EPHRATA        CLOUDY    52  30  43 S3        30.22R
MOSES LAKE     CLOUDY    54  29  38 S5        30.23R
TRI CITIES     PTCLDY    52  33  48 E3        30.24R
HERMISTON      MOCLDY    50  31  48 SE7       30.23R
PENDLETON      CLEAR     49  20  31 SE5       30.24R

...EAST SLOPES CASCADES...

CITY           SKY/WX    TMP DP  RH WIND       PRES   REMARKS
THE DALLES     CLOUDY    58  42  55 NW7       30.24R
YAKIMA         MOCLDY    60  26  27 CALM      30.21R
ELLENSBURG     CLOUDY    55  33  43 CALM      30.20F
WENATCHEE      MOCLDY    58  26  29 E9        30.20S
OMAK           CLEAR     53  27  36 S7        30.20R

...SOUTHERN BRITISH COLUMBIA...

CITY           SKY/WX    TMP DP  RH WIND       PRES   REMARKS
PENTICTON      MOCLDY    57  28  33 S15       30.15R
CRANBROOK      PTCLDY    39  28  65 S6        30.19R

...WESTERN MONTANA...

CITY           SKY/WX    TMP DP  RH WIND       PRES   REMARKS
MISSOULA       CLOUDY    41  39  93 S5        30.28R

...NEIGHBORING CITIES...

CITY           SKY/WX    TMP DP  RH WIND       PRES   REMARKS
SEATTLE        CLOUDY    53  44  71 S7        30.25S
CALGARY        PTCLDY    37  25  60 S7        30.09R



USA.gov is the U.S. government's official web portal to all federal, state and local government web resources and services.